Vertical_Velocity
-4 11 3 6 2 3 3 -0 1 4 4 0 -2 -1 1 0 1 2 3 8 8 12 3 -2 -1 -4 -9 1 8 2 -0 2 -0 10 3 7 6 3 -1 -2 8 -1 -2 -6
5 3 4 0 -1 0 -0 1 -1 2 1 3 -1 -3 2 -0 0 2 1 2 8 1 -3 -4 -4 -5 -6 -2 -2 -1 -2 -2 -2 6 -4 -3 -6 -8 -8 -0 14 -2 -5 1
-2 14 -1 -0 -0 -1 -1 2 0 6 -2 -2 6 -2 4 6 1 2 4 1 -1 -3 -3 2 -3 -2 4 2 2 -1 -3 -5 -4 1 7 -5 -4 -0 4 0 6 4 5 -1
2 2 0 0 1 3 1 2 1 1 6 2 0 -3 6 3 3 1 2 -1 1 4 6 8 0 -1 -0 -0 -1 -3 -3 1 -5 -5 -1 -1 0 0 -1 2 6 3 -4 -0
10 0 0 1 7 2 7 1 2 1 1 8 -5 8 12 0 6 4 4 1 -3 2 3 -1 -0 1 -0 -3 -5 -5 0 11 -0 -7 -7 -2 -1 -3 -1 -4 -2 -4 -3 -0
3 -2 -2 7 -1 1 1 4 3 1 4 2 -7 2 4 3 -3 4 4 3 4 5 -5 -2 -0 6 -5 -3 -4 -2 0 4 17 4 -5 -3 1 2 -1 2 0 -4 -4 -5
4 3 2 1 3 4 2 -1 -1 -2 5 2 0 2 7 3 2 -3 -1 2 1 1 5 17 19 19 4 -4 -6 -1 -5 -5 4 14 9 2 -2 -0 -2 -1 -4 -6 -6 -4
-1 13 2 2 4 8 1 5 1 2 1 1 -0 0 18 1 0 0 -1 -2 -5 -1 -5 -2 -2 -9 -1 -3 0 2 0 -3 -5 2 3 2 -1 -3 -4 -4 -5 -3 -3 -4
1 6 4 -2 0 6 0 -2 5 2 1 1 -2 13 8 2 3 3 2 1 1 -0 -0 7 -2 4 -3 -5 1 -9 -7 -1 8 1 -4 -1 1 2 -2 -4 -4 -2 3 -2
4 4 2 3 3 3 -0 3 3 -0 -0 -1 -4 1 6 3 2 1 1 5 -1 1 6 -2 6 7 8 7 2 9 1 -2 -0 2 2 -1 -7 -4 -5 -11 7 -0 -3 -6
2 2 9 6 1 5 4 1 -1 3 -0 1 0 1 6 2 1 1 -1 2 7 -1 -2 11 5 -5 -6 -1 -1 1 -4 2 -5 -4 -4 1 1 -0 7 6 -1 -3 -4 -12
4 1 -1 7 4 1 1 2 1 -1 -2 -1 -0 -13 0 1 2 1 0 -0 -7 5 1 -4 -5 1 -1 -0 -2 -2 2 -3 -4 3 -3 -5 -3 1 8 -3 -6 -6 0 4
3 2 0 12 9 5 1 0 1 0 -0 -2 4 -9 -1 1 -8 3 -1 5 3 -3 -1 0 -4 -4 -2 -1 -6 1 8 -2 4 -9 -0 2 2 3 -2 -5 -9 -3 -9 -1
0 0 1 2 5 3 -1 -1 -1 5 1 -4 -4 -7 -9 -3 1 -1 -2 4 -3 2 -3 1 -3 -4 -5 -6 3 4 -13 6 -10 -5 -15 -17 -4 -3 -5 -7 -10 -6 0 -4
2 0 -0 -1 1 1 2 2 -1 4 -3 9 -9 3 -0 3 2 8 7 -2 -2 -5 2 -4 -5 -5 -1 4 3 -7 1 2 1 -1 0 2 3 25 3 -4 -5 -5 -5 2
1 2 -1 -1 -1 1 0 -1 0 0 -2 -1 -0 -5 4 6 -3 -6 -2 -3 3 4 -3 -4 -1 -0 1 3 -1 3 -2 12 11 0 -12 3 4 -15 -2 -8 -9 -3 9 -3
-1 -0 -1 -1 0 -1 -1 -1 1 -1 -0 7 1 -6 1 -3 -1 4 -3 3 -1 -3 -2 -2 -3 3 2 -0 -0 -6 8 14 -16 3 8 21 -23 -13 5 2 -3 -12 3 -6
-1 -1 -1 -1 -1 -4 10 -0 3 4 1 -1 -2 1 2 4 3 2 -2 -3 -2 -2 -6 -9 3 0 2 -11 -0 10 -1 -4 4 14 13 35 17 -0 6 13 -3 7 -2 -4
-1 -1 -1 0 0 -7 -6 2 -1 3 -10 2 2 0 -0 -2 -9 6 5 5 -2 -3 0 14 1 4 1 10 8 -1 -10 -12 4 19 1 -12 -9 30 -1 16 -3 8 -5 -4
-2 -2 1 0 1 -1 1 3 -2 1 -2 2 -0 1 -0 -4 -1 -1 -11 -3 -2 0 4 -6 7 3 9 4 -2 -8 -7 -4 -7 16 -4 -5 -8 14 3 5 -17 -2 4 17
-0 1 -2 0 -0 -7 -4 2 -3 5 7 -0 -2 1 -2 1 7 -8 -9 6 -0 -3 3 6 3 5 6 -3 -10 -4 -1 -0 15 1 -2 -4 -3 -1 6 -25 -4 13 -1 -2
-5 -4 -1 1 2 -3 -0 1 0 6 -8 5 1 -1 -2 -4 -1 1 6 -8 -1 3 -3 4 -1 2 -1 -7 1 -3 3 1 -8 -7 -7 -5 -8 7 9 14 -1 4 1 -0
5 -9 -5 -11 -11 -5 15 -2 -1 -3 3 -3 -4 -2 1 -1 -0 2 -7 3 1 1 7 -3 4 -6 -14 1 6 4 2 -4 -5 -6 -3 -1 -3 6 -4 -9 13 2 1 -6
-1 1 1 2 -7 -3 2 4 -1 -0 -1 -4 -4 -2 0 7 -0 -5 3 2 1 1 -7 3 -11 -7 3 10 11 3 -3 -4 -4 -6 -3 -1 2 9 11 4 2 -2 -3 -2
-5 4 0 -5 -6 2 9 0 1 2 -2 -6 -6 11 -2 -2 2 6 -3 1 1 -6 5 -14 7 8 -1 4 2 -4 -6 -4 -2 -5 -3 4 1 2 -3 -1 -1 1 -2 -1
-2 -2 1 -6 2 -1 6 0 -1 -7 -8 -1 4 -5 -2 3 1 6 -0 -2 0 0 -8 3 1 -3 -3 -3 -7 -6 1 -2 -5 -4 -0 -2 -1 -2 -4 -1 -3 -3 -2 -1
Height
1500 1499 1502 1501 1502 1501 1500 1498 1499 1498 1505 1509 1508 1503 1501 1507 1511 1512 1513 1515 1520 1525 1530 1532 1536 1539 1543 1547 1547 1546 1546 1548 1550 1552 1552 1552 1551 1550 1551 1551 1549 1547 1546 1544
1499 1502 1504 1502 1502 1504 1503 1505 1504 1500 1507 1513 1506 1505 1505 1511 1515 1514 1516 1519 1524 1530 1535 1538 1540 1541 1545 1546 1547 1547 1547 1548 1549 1550 1551 1550 1550 1550 1549 1549 1547 1546 1543 1540
1507 1508 1505 1505 1505 1509 1502 1510 1514 1517 1510 1507 1508 1509 1509 1516 1519 1519 1520 1524 1528 1534 1538 1542 1544 1546 1547 1547 1548 1549 1549 1548 1549 1550 1549 1548 1548 1548 1546 1544 1543 1540 1537 1536
1504 1509 1508 1508 1510 1514 1515 1514 1517 1517 1517 1517 1501 1521 1507 1516 1522 1523 1526 1529 1534 1538 1541 1544 1547 1548 1547 1548 1549 1549 1550 1550 1548 1547 1547 1546 1545 1543 1542 1541 1539 1536 1534 1533
1511 1511 1510 1511 1517 1517 1516 1517 1517 1515 1515 1512 1504 1512 1506 1509 1521 1525 1529 1533 1538 1541 1544 1546 1548 1549 1549 1549 1549 1550 1550 1550 1547 1546 1545 1543 1541 1540 1540 1538 1535 1533 1530 1528
1510 1513 1515 1517 1517 1517 1516 1513 1509 1510 1511 1525 1504 1506 1523 1515 1515 1524 1530 1535 1539 1543 1546 1548 1549 1549 1549 1550 1550 1550 1550 1549 1548 1544 1543 1541 1540 1538 1536 1534 1531 1527 1525 1522
1511 1514 1517 1519 1517 1514 1512 1512 1526 1539 1526 1530 1508 1512 1519 1517 1518 1522 1531 1536 1541 1544 1547 1548 1549 1549 1549 1549 1550 1549 1548 1547 1546 1544 1541 1538 1536 1534 1532 1529 1526 1523 1521 1517
1514 1531 1518 1520 1522 1523 1517 1519 1537 1548 1547 1535 1508 1517 1523 1521 1526 1529 1533 1538 1542 1545 1547 1548 1549 1549 1549 1548 1548 1547 1546 1545 1544 1540 1538 1535 1533 1531 1528 1525 1523 1520 1517 1514
1515 1523 1522 1524 1523 1523 1523 1529 1526 1535 1545 1547 1520 1516 1521 1525 1529 1532 1535 1537 1540 1543 1544 1546 1547 1546 1546 1546 1545 1545 1544 1543 1541 1538 1535 1532 1529 1527 1524 1522 1520 1517 1514 1511
1519 1526 1523 1524 1525 1524 1524 1525 1534 1535 1554 1552 1526 1521 1532 1529 1530 1533 1534 1536 1538 1540 1542 1543 1544 1544 1545 1544 1544 1543 1541 1539 1537 1535 1532 1529 1527 1524 1521 1519 1517 1513 1510 1507
1522 1522 1530 1525 1526 1528 1527 1526 1531 1532 1539 1553 1553 1537 1525 1527 1527 1532 1535 1536 1537 1540 1541 1542 1542 1543 1543 1543 1541 1540 1537 1535 1534 1531 1529 1527 1525 1522 1519 1515 1511 1508 1506 1503
1529 1528 1537 1528 1530 1530 1529 1531 1532 1549 1548 1545 1549 1544 1525 1528 1530 1533 1535 1537 1540 1541 1541 1542 1543 1543 1542 1540 1538 1536 1534 1532 1531 1529 1526 1524 1521 1519 1515 1510 1507 1505 1503 1499
1531 1532 1540 1534 1535 1531 1531 1529 1533 1539 1550 1556 1560 1547 1525 1527 1538 1537 1539 1540 1540 1542 1542 1542 1541 1541 1539 1537 1534 1533 1531 1530 1527 1525 1523 1520 1517 1514 1510 1506 1504 1502 1500 1497
1534 1529 1535 1545 1535 1532 1535 1531 1529 1532 1548 1546 1545 1537 1529 1526 1530 1537 1537 1539 1540 1540 1540 1541 1541 1539 1537 1535 1533 1530 1529 1526 1523 1520 1517 1515 1512 1508 1503 1500 1499 1498 1497 1493
1533 1538 1535 1535 1534 1533 1533 1531 1529 1530 1529 1539 1533 1528 1525 1529 1533 1535 1537 1539 1539 1539 1539 1540 1539 1537 1535 1533 1530 1528 1525 1521 1519 1514 1510 1507 1505 1501 1497 1495 1493 1493 1492 1489
1536 1543 1546 1544 1532 1535 1537 1532 1529 1526 1523 1523 1526 1529 1526 1533 1536 1539 1540 1540 1538 1538 1539 1538 1536 1534 1532 1530 1527 1524 1521 1517 1512 1512 1506 1504 1496 1492 1491 1488 1488 1488 1487 1484
1538 1543 1548 1550 1546 1545 1545 1533 1526 1526 1525 1528 1534 1530 1532 1536 1537 1538 1538 1538 1539 1539 1538 1536 1534 1532 1529 1527 1524 1521 1517 1514 1508 1504 1500 1495 1491 1487 1485 1481 1482 1482 1482 1480
1544 1546 1556 1556 1555 1556 1527 1525 1524 1527 1525 1526 1525 1528 1535 1539 1539 1538 1538 1540 1540 1539 1537 1535 1532 1529 1527 1524 1521 1516 1512 1509 1504 1500 1494 1488 1484 1479 1479 1478 1476 1478 1476 1475
1539 1548 1559 1560 1551 1540 1528 1528 1532 1533 1534 1529 1529 1533 1536 1538 1540 1538 1540 1540 1539 1537 1535 1532 1529 1526 1523 1520 1516 1511 1508 1506 1501 1496 1488 1485 1478 1479 1476 1474 1473 1473 1472 1470
1543 1545 1550 1562 1560 1553 1529 1526 1531 1532 1536 1533 1536 1537 1540 1540 1540 1539 1539 1538 1536 1534 1532 1529 1526 1523 1519 1515 1511 1508 1506 1503 1498 1491 1486 1481 1478 1474 1471 1469 1470 1471 1468 1466
1556 1554 1556 1556 1558 1545 1529 1529 1531 1539 1541 1537 1537 1538 1539 1540 1541 1539 1537 1535 1534 1532 1529 1526 1522 1519 1515 1511 1508 1506 1502 1499 1494 1487 1482 1478 1475 1471 1468 1466 1468 1467 1464 1462
1546 1551 1557 1552 1553 1547 1528 1528 1536 1533 1532 1535 1536 1537 1537 1536 1536 1535 1533 1532 1531 1528 1525 1523 1518 1515 1511 1509 1506 1501 1497 1492 1488 1483 1479 1475 1471 1468 1468 1467 1466 1464 1461 1457
1528 1528 1531 1536 1533 1525 1525 1527 1529 1530 1532 1533 1535 1536 1535 1535 1534 1532 1531 1530 1527 1525 1522 1518 1515 1511 1509 1505 1501 1496 1492 1487 1483 1479 1476 1473 1470 1468 1466 1464 1464 1461 1457 1454
1517 1518 1521 1524 1521 1521 1522 1524 1525 1527 1529 1531 1531 1531 1532 1532 1531 1530 1528 1526 1523 1521 1518 1515 1512 1508 1504 1501 1496 1491 1487 1482 1479 1476 1473 1471 1468 1466 1465 1462 1460 1458 1455 1452
1519 1517 1516 1516 1515 1516 1519 1522 1525 1525 1526 1528 1530 1528 1531 1531 1529 1527 1525 1522 1519 1517 1514 1511 1507 1503 1500 1497 1491 1487 1483 1479 1476 1473 1470 1468 1466 1463 1461 1460 1458 1456 1453 1451
1515 1514 1518 1516 1513 1514 1518 1521 1522 1521 1525 1527 1528 1527 1528 1528 1526 1523 1521 1519 1516 1512 1510 1507 1503 1499 1495 1491 1487 1484 1480 1476 1472 1469 1467 1464 1462 1460 1459 1458 1456 1453 1451 1448